Погода Кочубей

Погода Кочубей : погода сейчас, прогноз погоды и архив. Всё, что Вы хотите узнать о погоде Кочубей!

Поиск расширенной информации на нашем сайте:

Другие новости

Новости СМИ2

Главная страница сайта

Новости сайта

03.07.2017

Напоминаем, что на нашем специализированном сайте Метеоцентр.Азия вы можете получить высокодетализированные автоматические прогнозы погоды по пунктам России, СНГ и мира в авиационном формате (включающие направление и скорость ветра, видимость, явления погоды, количество и форму облачности, нижнюю и верхнюю границу облачности).

Рекомендуем: Закупка услуг по изготовлению бланков.

Погода Кочубей - сегодня

Время (UTC), дата Ветер
(°,м/с) 
Видим.   Явления Облачность Т
(°С)
Тd
(°С)
f(%) Тe
(°С)
Pmin
(гПа)
dP
(гПа)
Po
(мм)
O2
(г/м3)
Тmin Tmax R s Состояние
почвы
00 18.08.17 050 (СВ) 4000 м    1/0 средняя 
[Ac lent]
+22.9 +20.1 84 +41  1012.5  -1  761  278           
03 18.08.17 050 (СВ) 20000 м    9/0 средняя, верхняя 
[Ac trans|Cc]
+22.8 +20.7 88 +43  1012.7  0.3  761  278  +22.4    0.0    сухая 
06 18.08.17 080 (В) 7-10{11}  20000 м    9/0 средняя 
[Ac trans]
+28 +17.3 52 +40  1013.6  0.8  762  275           
09 18.08.17 120 (ЮВ) 5{10}  20000 м  {ливн. осадки}  10/8 600 м кучево-дожд., средняя 
[Cb calv|Ac As]
+29.4 +15.4 43 +38  1014.2  0.7  763  274           
12 18.08.17 070 (В) 20000 м  {ливн. осадки}  10/8 600 м кучево-дожд., средняя 
[Cb calv|Ac As]
+28.3 +10.3 33 +30  1015.6  1.3  764  277           
15 18.08.17 070 (В) 20000 м  {ливн. осадки}  10/6 600 м средняя 
[Sc|Ac As]
+26.2 +11.8 41 +29  1016.8  1.2  764  279    +29.5       
18 18.08.17 010 (С) 4000 м  {ливн. осадки}  10/10 600 м 
[Sc]
+22.9 +14.9 61 +31  1016.8  764  281           
21 18.08.17 050 (СВ) 4000 м    3/3 600 м 
[Sc]
+22.3 +15.5 65 +31  1016.3  -0.4  764  281           
00 19.08.17 050 (СВ) 4000 м    ясно 
+22.3 +17.9 76 +36  1016.2  -0.2  764  281           
03 19.08.17 060 (СВ) 20000 м    8/6 600 м средняя, верхняя 
[Sc|Ac trans|Ci fib]
+23.5 +19 76 +39  1016.5  0.4  764  279  +22        сухая 
06 19.08.17 080 (В) 20000 м    8/8 600 м 
[Sc]
+29.4 +16.9 47 +41  1017  0.4  765  275           
09 19.08.17 100 (В) 6{12}  20000 м    9/1 600 м средняя, верхняя 
[Cu hum|Ac trans|Ci fib]
+31.7 +9.4 25 +32  1016.8  -0.2  764  274           
12 19.08.17 070 (В) 8-11{12}  20000 м    8/0 верхняя 
[Ci sp]
+31.5 +2.8 16 +32  1016.7  0.1  764  276           
15 19.08.17 080 (В) 5{11}  20000 м    8/0 средняя, верхняя 
[Ac trans|Ci sp]
+27.9 +15.4 47 +37  1017  0.3  765  276    +32.7       
18 19.08.17 090 (В) 4000 м    8/0 верхняя 
[Ci fib]
+25 +19.7 72 +42  1017.2  0.2  765  278           
21 19.08.17 040 (СВ) 4000 м    3/0 верхняя 
[Ci fib]
+22.9 +19.4 81 +40  1016.8  -0.4  765  280           
00 20.08.17 060 (СВ) 4000 м    6/0 верхняя 
[Ci fib]
+22 +17.9 78 +36  1015.8  -1  764  281           
03 20.08.17 080 (В) 20000 м    6/3 600 м верхняя 
[Sc|Ci fib]
+22.7 +18.5 77 +37  1015.6  -0.3  764  280  +20.8        сухая 
06 20.08.17 100 (В) 7{10}  20000 м    6/0 средняя, верхняя 
[Ac trans|Ci fib]
+31.4 +11.1 29 +34  1015.6  0.1  764  274           
09 20.08.17 100 (В) 10-17{17}  20000 м    6/3 600 м средняя, верхняя 
[Cu med, cong|Ac trans|Ci fib]
+32.3 +18.2 43 +46  1014.7  -0.9  763  271           
12 20.08.17 110 (В) 12-17{18}  10 км  пыльный позёмок  8/0 средняя, верхняя 
[Ac trans|Ci fib]
+31.9 +11 28 +34  1014.8  0.1  763  273           
15 20.08.17 090 (В) 20000 м    8/4 600 м средняя, верхняя 
[Sc|Ac trans|Ci fib]
+28.5 +15.9 46 +38  1015  0.2  763  275    +33.8       
18 20.08.17 080 (В) 7-11{13}  4000 м  зарница  9/8 600 м кучево-дожд., средняя 
[Cb cap|Ac trans]
+26.6 +16.9 55 +38  1015.7  0.7  764  277           
21 20.08.17 360 (С) 4{11}  4000 м  гроза, ливневой дождь  10/8 600 м кучево-дожд., средняя 
[Cb cap|Ac As]
+24.7 +18 66 +38  1017.4  1.7  765  279           
00 21.08.17 060 (СВ) 4{14}  4000 м  {гроза, ливн. осадки}  8/8 600 м 
[Sc]
+22.7 +15.2 63 +31  1013.9  -3.5  762  280           
Время (UTC), дата Ветер
(°,м/с) 
Видим.   Явления Облачность Т
(°С)
Тd
(°С)
f(%) Тe
(°С)
Pmin
(гПа)
dP
(гПа)
Po
(мм)
O2
(г/м3)
Тmin Tmax R s Состояние
почвы

Для получения пояснительной информации подведите курсор к названию столбца.

ПОГОДА Кочубей - архив

Всё, что Вы хотите узнать о погоде Кочубей - удобно и подробно!

Выберите нужную дату (начиная с 1 января 2015* года) и нажмите кнопку "Найти".
Будут отображены архивные сводки погоды по пункту Кочубей, начиная с указанной даты.


Отображать данные в формате CSV (для использования в таблицах Excel)


Внимание! Наш архив погоды предназначен исключительно для личного некоммерческого использования в познавательных целях. Если Вам необходимы официальные справки о состоянии погоды (для производственных, юридических, коммерческих и т.п. целей), обращайтесь в органы Росгидромета.

*Примечание: данная дата относится к архиву по метеостанциям СССР (Россия, СНГ, Балтия).
Архив по метеостанциям Зарубежной Европы и Азии (кроме Китая) хранится 10 дней, по другим регионам земного шара (Китай, Африка, Америка, Австралия, Океания) - 1 день.

Кочубей - район местоположения метеостанции


Название, широта, долгота, высота метеостанции:
Кочубей 44.4°ш. 46.6°д. -21 м над ур. моря [Российская Федерация]

Дополнительная информация

В oтличие oт бoльшинства пoгoдных сайтoв мы публикуем пoдрoбную метеoинфoрмацию в детальнoм прoфессиoнальнoм фoрмате.

Характеристики температуры и влажнoсти вoздуха измеряются на высoте 2 м в тени вдали oт зданий и деревьев.
Скoрoсть ветра измеряется на высoте 10 м (на урoвне рoста челoвека скoрoсть ветра ниже в 1.5-2 раза). Если метеoстанция нахoдится в гoрoде или в лесу, тo скoрoсть ветра занижена на 2-4 м/с пo сравнению с oткрытым местoм. Скoрoсть ветра над акватoриями крупных рек и oзёр, а также на вершинах хoлмoв на 2-5 м/с выше, чем в oбычных услoвиях.
Атмoсфернoе давление в разных тoчках местнoсти мoжет значительнo oтличаться oт давления на метеoстанции, в зависимoсти oт услoвий рельефа (при пoдъёме на 10 м давление пoнижается примернo на 1 мм рт.ст.).